Regional Weather Roundup
Issued by NWS

Home | Current Version | Previous Version | Text Only | Print | Product List | Glossary Off
Versions: 1 2 3 4 5 6 7 8 9 10 11 12 13 14 15 16 17 18 19 20 21 22 23 24 25 26 27 28 29 30 31 32 33 34 35 36 37 38 39 40 41 42 43 44 45 46 47 48 49 50

000
ASUS43 KIND 241409
RWRIN

WEATHER ROUNDUP FOR INDIANA
NATIONAL WEATHER SERVICE INDIANAPOLIS IN
1000 AM EDT MON APR 24 2017

NOTE: "FAIR" INDICATES FEW OR NO CLOUDS BELOW 12,000 FEET WITH NO
SIGNIFICANT WEATHER AND/OR OBSTRUCTIONS TO VISIBILITY.

* - STATION DOES NOT REPORT WEATHER SUCH AS PRECIPITATION OR FOG.

+ - STATION NOT QUALITY CONTROLLED BY THE NATIONAL WEATHER SERVICE.
    USE DATA WITH CAUTION...ESPECIALLY DEWPOINT AND RELATIVE
    HUMIDITY OBSERVATIONS.

INZ001>003-010>013-019-020-241500-
NORTHWEST INDIANA

CITY           SKY/WX    TMP DP  RH WIND       PRES   REMARKS
GARY /AIRPORT/ MOSUNNY   52  43  71 CALM      30.04S
KNOX *+        SUNNY     59   5  11 E6        30.02S
LA PORTE +     SUNNY     58  33  37 E9        30.04S
MICHIGAN CITY+ SUNNY     61  30  31 SE5       30.04S
MONTICELLO +   SUNNY     57  32  39 E6        30.00S
RENSSELAER +   SUNNY     61  30  31 E10       30.02S
VALPARAISO     SUNNY     61  32  33 E9        30.04R

$$

LMZ046-743>745-241500-
SOUTHERN LAKE MICHIGAN

STATION/POSITION TIME  TEMP    WIND        PRES    WAVE
                       AIR SEA DIR/SP/G            HT
                 (UTC) (F)     (DEG/KT/KT) (MB)    (FT)
BURNS HARBOR     1340   46        CALM     1017.6S
MICHIGAN CITY    1340   50     320/  2/  2   N/A

$$

INZ004-005-014>016-021>024-241500-
NORTH CENTRAL INDIANA

CITY           SKY/WX    TMP DP  RH WIND       PRES   REMARKS
ELKHART        SUNNY     57  32  38 E6        30.04F
GOSHEN         SUNNY     57  35  43 E13       30.03F
LOGANSPORT +   SUNNY     55  34  44 E8        30.02S
PERU/GRISSOM   SUNNY     58  34  40 E9        30.00S
ROCHESTER +    SUNNY     61  28  29 E10G16    30.02F
SOUTH BEND     SUNNY     58  31  35 E8        30.05F
WARSAW +       SUNNY     57  32  38 E9        30.03F

$$

INZ006>009-017-018-025>027-241500-
NORTHEAST INDIANA

CITY           SKY/WX    TMP DP  RH WIND       PRES   REMARKS
ANGOLA *+      SUNNY     55  43  62 E9        30.04F
AUBURN +       SUNNY     55  36  47 E8        30.05S
FORT WAYNE     MOSUNNY   56  34  43 E13       30.03S
HUNTINGTON +   SUNNY     56  32  40 E8        30.02R
KENDALLVILLE + SUNNY     56  34  43 E8        30.04F

$$

INZ028-029-035-036-043>045-051>053-241500-
WEST CENTRAL INDIANA

CITY           SKY/WX    TMP DP  RH WIND       PRES   REMARKS
CRAWFORDSVL +  SUNNY     60  38  44 E10       29.99S
GREENCASTLE +  SUNNY     61  36  39 E10       29.98S
LAFAYETTE      SUNNY     57  40  52 E8        30.00S
TERRE HAUTE    SUNNY     62  40  44 NE6       29.97S

$$

INZ030>032-037>040-046>048-054>057-064-065-241500-
CENTRAL INDIANA

CITY           SKY/WX    TMP DP  RH WIND       PRES   REMARKS
ANDERSON       SUNNY     59  36  41 NE12      29.99F
CP ATTERBURY + SUNNY     61  37  41 NE7       29.96S
COLUMBUS       SUNNY     59  32  36 E9        29.95F
FISHERS *+     SUNNY     61  41  48 NE6       29.98S
FRANKFORT +    SUNNY     63  37  38 E13       30.01S
GREENWOOD *+   SUNNY     61  34  36 NE9       29.97R
INDIANAPOLIS   MOSUNNY   60  36  40 NE10      29.97R
-EAGLE CREEK   SUNNY     61  36  39 NE8       29.97R
KOKOMO +       SUNNY     59  35  40 E9        30.02R
MARION +       SUNNY     57  34  41 E10       30.01R
SHELBYVILLE    SUNNY     63  35  35 NE12      29.95F
ZIONSVILLE +   SUNNY     58  36  43 E9        29.99S

$$

INZ033-034-041-042-049-050-058-059-241500-
EAST CENTRAL INDIANA

CITY           SKY/WX    TMP DP  RH WIND       PRES   REMARKS
MUNCIE         SUNNY     61  33  35 E13       29.98F
RICHMOND +     SUNNY     57  34  41 E16       29.97S

$$

INZ060-061-067>069-081>083-085>088-241500-
SOUTHWEST INDIANA

CITY           SKY/WX    TMP DP  RH WIND       PRES   REMARKS
EVANSVILLE     SUNNY     62  41  46 NE6       29.92S
HUNTINGBURG *+ SUNNY     60  42  51 NE8       29.91S
WASHINGTON +   SUNNY     59  37  44 MISG      29.93S

$$

INZ062-063-066-070>080-084-089>092-241500-
SOUTH CENTRAL AND SOUTHEAST INDIANA

CITY           SKY/WX    TMP DP  RH WIND       PRES   REMARKS
BEDFORD +      SUNNY    N/A N/A N/A E9        29.92S
BLOOMINGTON    SUNNY     62  35  36 NE9G17    29.94R
MADISON *+     SUNNY     59  36  41 NE12G17   29.93F
NORTH VERNON + SUNNY     59  36  41 E13       29.93F
SEYMOUR +      SUNNY     61  39  44 NE10      29.93S

$$





USA.gov is the U.S. government's official web portal to all federal, state and local government web resources and services.